| time (UTC) | temp F | wind direction | speed MPH | gust MPH | rain 1hr in | rain 24hr in | rain mn in | humidity % | barometer mb |
| 20260508091003 | 42 | 252 | 0.0 | 2.0 | 0.00 | 0.06 | 0.00 | 92 | 1000.2 |
| 20260508090004 | 42 | 247 | 0.0 | 1.0 | 0.00 | 0.06 | 0.00 | 92 | 1000.5 |
| 20260508085003 | 42 | 242 | 0.0 | 2.0 | 0.00 | 0.06 | 0.00 | 92 | 1000.2 |
| 20260508084004 | 42 | 235 | 0.0 | 1.0 | 0.00 | 0.06 | 0.00 | 91 | 1000.2 |
| 20260508083004 | 43 | 228 | 0.0 | 1.0 | 0.00 | 0.06 | 0.00 | 90 | 1000.2 |
| 20260508082004 | 43 | 221 | 0.0 | 1.0 | 0.00 | 0.06 | 0.00 | 91 | 1000.2 |
| 20260508081003 | 43 | 232 | 0.0 | 2.0 | 0.00 | 0.07 | 0.00 | 91 | 1000.5 |
| 20260508080003 | 43 | 269 | 0.0 | 1.0 | 0.00 | 0.07 | 0.00 | 91 | 1000.2 |
| 20260508075004 | 44 | 270 | 0.0 | 1.0 | 0.00 | 0.07 | 0.00 | 90 | 1000.2 |
| 20260508074003 | 44 | 266 | 0.0 | 2.0 | 0.00 | 0.07 | 0.00 | 89 | 1000.5 |
| 20260508073004 | 44 | 257 | 0.0 | 2.0 | 0.00 | 0.07 | 0.00 | 90 | 1000.5 |
| 20260508072004 | 44 | 266 | 0.0 | 1.0 | 0.00 | 0.07 | 0.00 | 89 | 1000.5 |
| 20260508071004 | 44 | 273 | 0.0 | 2.0 | 0.00 | 0.08 | 0.00 | 90 | 1000.5 |
| 20260508070004 | 44 | 274 | 1.0 | 3.0 | 0.00 | 0.08 | 0.00 | 90 | 1000.2 |
| 20260508065003 | 43 | 255 | 0.0 | 1.0 | 0.00 | 0.08 | 0.00 | 92 | 1000.2 |
| 20260508064003 | 42 | 0 | 0.0 | 0.0 | 0.00 | 0.08 | 0.00 | 92 | 1000.5 |
| 20260508063003 | 42 | 267 | 0.0 | 1.0 | 0.00 | 0.08 | 0.00 | 92 | 1000.5 |
| 20260508062003 | 42 | 267 | 0.0 | 1.0 | 0.00 | 0.09 | 0.00 | 92 | 1000.5 |
| 20260508061003 | 42 | 0 | 0.0 | 0.0 | 0.00 | 0.09 | 0.00 | 92 | 1000.5 |
| 20260508060004 | 43 | 0 | 0.0 | 0.0 | 0.00 | 0.09 | 0.00 | 90 | 1000.5 |
| 20260508055003 | 43 | 244 | 0.0 | 2.0 | 0.00 | 0.09 | 0.00 | 89 | 1000.9 |
| 20260508054003 | 44 | 233 | 0.0 | 2.0 | 0.00 | 0.09 | 0.00 | 88 | 1000.9 |
| 20260508053003 | 44 | 266 | 0.0 | 2.0 | 0.00 | 0.09 | 0.00 | 88 | 1000.9 |
| 20260508052004 | 44 | 278 | 1.0 | 2.0 | 0.00 | 0.09 | 0.00 | 87 | 1000.9 |
| 20260508051003 | 44 | 271 | 1.0 | 6.0 | 0.00 | 0.10 | 0.00 | 88 | 1000.9 |
| 20260508050004 | 43 | 268 | 1.0 | 3.0 | 0.00 | 0.10 | 0.00 | 89 | 1000.9 |
| 20260508045004 | 43 | 270 | 1.0 | 3.0 | 0.00 | 0.11 | 0.00 | 89 | 1000.9 |
| 20260508044003 | 43 | 249 | 1.0 | 3.0 | 0.00 | 0.11 | 0.00 | 89 | 1000.9 |
| 20260508043003 | 43 | 265 | 1.0 | 4.0 | 0.00 | 0.11 | 0.00 | 90 | 1000.9 |
| 20260508042003 | 42 | 263 | 0.0 | 1.0 | 0.00 | 0.11 | 0.00 | 92 | 1000.9 |
| 20260508041003 | 43 | 0 | 0.0 | 0.0 | 0.00 | 0.11 | 0.00 | 92 | 1000.9 |
| 20260508040004 | 43 | 272 | 0.0 | 1.0 | 0.00 | 0.11 | 0.00 | 92 | 1000.5 |
| 20260508035003 | 44 | 272 | 0.0 | 1.0 | 0.00 | 0.11 | 0.00 | 93 | 1000.5 |
| 20260508034004 | 44 | 276 | 1.0 | 2.0 | 0.00 | 0.11 | 0.00 | 94 | 1000.5 |
| 20260508033003 | 43 | 264 | 0.0 | 2.0 | 0.00 | 0.11 | 0.00 | 97 | 1000.9 |
| 20260508032004 | 43 | 142 | 0.0 | 1.0 | 0.00 | 0.11 | 0.00 | 96 | 1000.9 |
| 20260508031003 | 43 | 139 | 0.0 | 2.0 | 0.00 | 0.11 | 0.00 | 96 | 1000.9 |
| 20260508030004 | 43 | 0 | 0.0 | 0.0 | 0.00 | 0.11 | 0.00 | 95 | 1000.9 |
| 20260508025003 | 44 | 139 | 0.0 | 2.0 | 0.00 | 0.11 | 0.11 | 95 | 1000.5 |
| 20260508024004 | 44 | 288 | 1.0 | 3.0 | 0.00 | 0.11 | 0.11 | 96 | 1000.9 |
| 20260508023003 | 44 | 0 | 0.0 | 0.0 | 0.00 | 0.11 | 0.11 | 95 | 1000.2 |
| 20260508022003 | 45 | 200 | 0.0 | 1.0 | 0.00 | 0.11 | 0.11 | 95 | 1000.2 |
| 20260508021003 | 45 | 199 | 0.0 | 1.0 | 0.00 | 0.11 | 0.11 | 95 | 1000.2 |
| 20260508020004 | 45 | 195 | 0.0 | 3.0 | 0.00 | 0.11 | 0.11 | 95 | 1000.5 |
| 20260508015003 | 45 | 209 | 0.0 | 2.0 | 0.00 | 0.11 | 0.11 | 95 | 1000.5 |
| 20260508014003 | 46 | 225 | 0.0 | 1.0 | 0.00 | 0.11 | 0.11 | 95 | 1000.5 |
| 20260508013004 | 45 | 225 | 0.0 | 1.0 | 0.00 | 0.11 | 0.11 | 93 | 1000.5 |
| 20260508012003 | 46 | 0 | 0.0 | 0.0 | 0.00 | 0.11 | 0.11 | 92 | 1000.2 |
| 20260508011003 | 46 | 223 | 0.0 | 1.0 | 0.00 | 0.11 | 0.11 | 91 | 1000.5 |
| 20260508010004 | 46 | 206 | 0.0 | 2.0 | 0.00 | 0.11 | 0.11 | 91 | 1000.2 |
| 20260508005004 | 45 | 0 | 0.0 | 0.0 | 0.00 | 0.11 | 0.11 | 86 | 1000.5 |
| 20260508004003 | 46 | 0 | 0.0 | 0.0 | 0.00 | 0.11 | 0.11 | 84 | 1000.2 |
| 20260508003004 | 46 | 262 | 0.0 | 1.0 | 0.00 | 0.11 | 0.11 | 81 | 1000.2 |
| 20260508002003 | 47 | 0 | 0.0 | 0.0 | 0.00 | 0.11 | 0.11 | 80 | 1000.2 |
| 20260508001003 | 47 | 262 | 0.0 | 1.0 | 0.00 | 0.11 | 0.11 | 78 | 999.8 |
| 20260508000004 | 48 | 0 | 0.0 | 0.0 | 0.00 | 0.11 | 0.11 | 80 | 999.8 |
| 20260507235004 | 49 | 262 | 0.0 | 1.0 | 0.00 | 0.11 | 0.11 | 75 | 999.8 |
| 20260507234004 | 50 | 262 | 0.0 | 1.0 | 0.00 | 0.11 | 0.11 | 76 | 999.8 |
| 20260507233004 | 51 | 0 | 0.0 | 0.0 | 0.00 | 0.11 | 0.11 | 70 | 999.8 |
| 20260507232004 | 53 | 0 | 0.0 | 0.0 | 0.00 | 0.11 | 0.11 | 69 | 999.5 |
| 20260507231003 | 54 | 262 | 0.0 | 1.0 | 0.00 | 0.11 | 0.11 | 59 | 999.5 |
| 20260507230004 | 55 | 262 | 0.0 | 1.0 | 0.00 | 0.11 | 0.11 | 55 | 999.5 |
| 20260507225003 | 56 | 273 | 0.0 | 3.0 | 0.00 | 0.11 | 0.11 | 52 | 999.8 |
| 20260507224004 | 57 | 287 | 0.0 | 3.0 | 0.00 | 0.11 | 0.11 | 50 | 999.8 |
| 20260507223003 | 58 | 292 | 1.0 | 4.0 | 0.00 | 0.11 | 0.11 | 48 | 999.8 |
| 20260507222004 | 58 | 299 | 2.0 | 6.0 | 0.00 | 0.11 | 0.11 | 50 | 999.8 |
| 20260507221003 | 58 | 296 | 2.0 | 6.0 | 0.00 | 0.11 | 0.11 | 50 | 999.8 |
| 20260507220004 | 59 | 280 | 2.0 | 6.0 | 0.00 | 0.11 | 0.11 | 49 | 999.8 |
| 20260507215003 | 59 | 277 | 1.0 | 4.0 | 0.00 | 0.11 | 0.11 | 52 | 999.5 |
| 20260507214003 | 58 | 290 | 3.0 | 8.0 | 0.00 | 0.11 | 0.11 | 52 | 999.8 |
| 20260507213003 | 60 | 296 | 2.0 | 9.0 | 0.00 | 0.11 | 0.11 | 49 | 999.5 |
| 20260507212004 | 59 | 272 | 2.0 | 9.0 | 0.00 | 0.11 | 0.11 | 52 | 999.5 |
| 20260507211003 | 59 | 278 | 3.0 | 8.0 | 0.00 | 0.11 | 0.11 | 50 | 999.5 |
| 20260507210004 | 59 | 295 | 1.0 | 4.0 | 0.00 | 0.11 | 0.11 | 53 | 999.2 |
| 20260507205003 | 59 | 275 | 1.0 | 4.0 | 0.00 | 0.11 | 0.11 | 54 | 999.2 |
| 20260507204003 | 59 | 285 | 1.0 | 4.0 | 0.00 | 0.11 | 0.11 | 56 | 998.8 |
| 20260507203003 | 60 | 298 | 3.0 | 8.0 | 0.00 | 0.11 | 0.11 | 52 | 998.8 |
| 20260507202004 | 61 | 275 | 2.0 | 6.0 | 0.00 | 0.11 | 0.11 | 53 | 998.8 |
| 20260507201003 | 61 | 279 | 2.0 | 7.0 | 0.00 | 0.11 | 0.11 | 49 | 998.8 |
| 20260507200004 | 62 | 288 | 3.0 | 8.0 | 0.00 | 0.11 | 0.11 | 51 | 998.8 |
| 20260507195004 | 62 | 284 | 3.0 | 7.0 | 0.00 | 0.11 | 0.11 | 46 | 998.8 |
| 20260507194003 | 62 | 292 | 3.0 | 8.0 | 0.00 | 0.11 | 0.11 | 52 | 998.5 |
| 20260507193003 | 60 | 279 | 2.0 | 7.0 | 0.00 | 0.11 | 0.11 | 55 | 998.8 |
| 20260507192004 | 60 | 272 | 3.0 | 9.0 | 0.00 | 0.11 | 0.11 | 57 | 998.8 |
| 20260507191004 | 58 | 286 | 4.0 | 9.0 | 0.00 | 0.11 | 0.11 | 63 | 998.5 |
| 20260507190004 | 61 | 288 | 3.0 | 9.0 | 0.00 | 0.11 | 0.11 | 63 | 998.8 |
| 20260507185003 | 59 | 267 | 4.0 | 10.0 | 0.00 | 0.11 | 0.11 | 63 | 998.5 |
| 20260507184003 | 58 | 287 | 4.0 | 11.0 | 0.00 | 0.11 | 0.11 | 66 | 998.5 |
| 20260507183003 | 58 | 269 | 2.0 | 9.0 | 0.00 | 0.11 | 0.11 | 70 | 998.8 |
| 20260507182003 | 57 | 295 | 3.0 | 10.0 | 0.00 | 0.11 | 0.11 | 72 | 998.8 |
| 20260507181003 | 57 | 303 | 2.0 | 8.0 | 0.00 | 0.11 | 0.11 | 72 | 998.8 |
| 20260507180004 | 58 | 300 | 3.0 | 7.0 | 0.00 | 0.11 | 0.11 | 75 | 998.8 |
| 20260507175003 | 57 | 275 | 3.0 | 9.0 | 0.00 | 0.11 | 0.11 | 76 | 998.8 |
| 20260507174003 | 57 | 247 | 1.0 | 6.0 | 0.00 | 0.11 | 0.11 | 80 | 999.2 |
| 20260507173004 | 55 | 266 | 2.0 | 7.0 | 0.00 | 0.11 | 0.11 | 84 | 998.8 |
| 20260507172003 | 55 | 227 | 2.0 | 8.0 | 0.01 | 0.11 | 0.11 | 92 | 999.2 |
| 20260507171003 | 53 | 253 | 1.0 | 6.0 | 0.01 | 0.11 | 0.11 | 91 | 999.5 |
| 20260507170004 | 52 | 282 | 2.0 | 6.0 | 0.01 | 0.11 | 0.11 | 93 | 999.5 |
| 20260507165004 | 52 | 287 | 1.0 | 4.0 | 0.01 | 0.11 | 0.11 | 95 | 999.8 |
| 20260507164004 | 51 | 262 | 1.0 | 4.0 | 0.01 | 0.11 | 0.11 | 96 | 999.5 |
| 20260507163003 | 51 | 219 | 1.0 | 3.0 | 0.01 | 0.11 | 0.11 | 96 | 999.5 |
| 20260507162003 | 51 | 273 | 1.0 | 4.0 | 0.00 | 0.10 | 0.10 | 96 | 999.8 |
| 20260507161004 | 51 | 275 | 1.0 | 6.0 | 0.00 | 0.10 | 0.10 | 95 | 999.8 |
| 20260507160004 | 51 | 264 | 1.0 | 6.0 | 0.00 | 0.10 | 0.10 | 96 | 999.8 |
| 20260507155003 | 51 | 256 | 1.0 | 4.0 | 0.00 | 0.10 | 0.10 | 96 | 1000.2 |
| 20260507154004 | 51 | 261 | 1.0 | 4.0 | 0.00 | 0.10 | 0.10 | 96 | 999.5 |
| 20260507153003 | 51 | 277 | 1.0 | 6.0 | 0.00 | 0.10 | 0.10 | 95 | 1000.5 |
| 20260507152003 | 51 | 270 | 1.0 | 6.0 | 0.00 | 0.10 | 0.10 | 95 | 1000.9 |
| 20260507151003 | 51 | 264 | 1.0 | 3.0 | 0.00 | 0.10 | 0.10 | 95 | 1000.9 |
| 20260507150004 | 51 | 282 | 1.0 | 3.0 | 0.00 | 0.10 | 0.10 | 95 | 1000.2 |
| 20260507145003 | 51 | 255 | 1.0 | 3.0 | 0.00 | 0.10 | 0.10 | 96 | 1000.5 |
| 20260507144003 | 51 | 264 | 1.0 | 4.0 | 0.00 | 0.10 | 0.10 | 96 | 1000.9 |
| 20260507143004 | 51 | 211 | 0.0 | 3.0 | 0.01 | 0.10 | 0.10 | 96 | 1000.9 |
| 20260507142004 | 51 | 177 | 0.0 | 3.0 | 0.02 | 0.10 | 0.10 | 96 | 1000.2 |
| 20260507141004 | 51 | 181 | 1.0 | 3.0 | 0.03 | 0.10 | 0.10 | 96 | 1000.9 |
| 20260507140003 | 51 | 205 | 0.0 | 1.0 | 0.03 | 0.10 | 0.10 | 96 | 1000.9 |
| 20260507135003 | 51 | 203 | 1.0 | 3.0 | 0.03 | 0.10 | 0.10 | 95 | 1000.2 |
| 20260507134003 | 52 | 206 | 0.0 | 3.0 | 0.03 | 0.10 | 0.10 | 95 | 1000.2 |
| 20260507133003 | 52 | 206 | 1.0 | 4.0 | 0.02 | 0.09 | 0.09 | 94 | 1000.9 |
| 20260507132003 | 52 | 249 | 1.0 | 8.0 | 0.01 | 0.08 | 0.08 | 92 | 1001.2 |
| 20260507131003 | 53 | 192 | 1.0 | 2.0 | 0.00 | 0.07 | 0.07 | 90 | 1000.9 |
| 20260507130004 | 53 | 202 | 1.0 | 4.0 | 0.00 | 0.07 | 0.07 | 89 | 1000.9 |
| 20260507125004 | 53 | 204 | 2.0 | 7.0 | 0.00 | 0.07 | 0.07 | 88 | 1000.9 |
| 20260507124003 | 53 | 184 | 2.0 | 6.0 | 0.00 | 0.07 | 0.07 | 88 | 1001.2 |
| 20260507123004 | 53 | 202 | 2.0 | 7.0 | 0.00 | 0.07 | 0.07 | 89 | 1000.9 |
| 20260507122004 | 53 | 192 | 2.0 | 6.0 | 0.00 | 0.07 | 0.07 | 89 | 1000.5 |
| 20260507121004 | 53 | 203 | 2.0 | 7.0 | 0.00 | 0.07 | 0.07 | 90 | 1000.5 |
| 20260507120004 | 53 | 194 | 2.0 | 6.0 | 0.00 | 0.07 | 0.07 | 91 | 1000.5 |
| 20260507115003 | 52 | 190 | 3.0 | 8.0 | 0.00 | 0.07 | 0.07 | 92 | 1000.2 |
| 20260507114004 | 53 | 208 | 3.0 | 14.0 | 0.00 | 0.07 | 0.07 | 91 | 1000.9 |
| 20260507113004 | 53 | 199 | 1.0 | 7.0 | 0.01 | 0.07 | 0.07 | 94 | 1000.9 |
| 20260507112004 | 53 | 183 | 1.0 | 4.0 | 0.02 | 0.07 | 0.07 | 95 | 1000.9 |
| 20260507111004 | 53 | 175 | 1.0 | 4.0 | 0.02 | 0.07 | 0.07 | 94 | 999.8 |
| 20260507110004 | 53 | 172 | 1.0 | 4.0 | 0.02 | 0.07 | 0.07 | 96 | 999.8 |
| 20260507105003 | 52 | 192 | 1.0 | 4.0 | 0.02 | 0.07 | 0.07 | 95 | 999.8 |
| 20260507104004 | 52 | 170 | 1.0 | 2.0 | 0.02 | 0.07 | 0.07 | 95 | 999.8 |
| 20260507103003 | 53 | 185 | 2.0 | 8.0 | 0.01 | 0.06 | 0.06 | 94 | 1000.2 |
| 20260507102003 | 53 | 167 | 3.0 | 6.0 | 0.00 | 0.05 | 0.05 | 91 | 1000.2 |
| 20260507101003 | 54 | 191 | 2.0 | 9.0 | 0.00 | 0.05 | 0.05 | 91 | 1000.5 |
| 20260507100004 | 54 | 184 | 3.0 | 8.0 | 0.00 | 0.05 | 0.05 | 91 | 1000.2 |
| 20260507095003 | 55 | 222 | 3.0 | 13.0 | 0.00 | 0.05 | 0.05 | 92 | 1000.2 |
| 20260507094004 | 55 | 201 | 2.0 | 8.0 | 0.00 | 0.05 | 0.05 | 93 | 1000.2 |
| 20260507093003 | 55 | 188 | 2.0 | 10.0 | 0.00 | 0.05 | 0.05 | 96 | 999.8 |
| 20260507092003 | 55 | 179 | 2.0 | 6.0 | 0.00 | 0.05 | 0.05 | 98 | 999.8 |